Theta_e
350 347 349 350 356 351 356 354 347 347 346 344 341 342 343 344 344 342 339 338 338 335 340 341 336 338 340 339 341 342 342 341 339 335 336 338 338 339 338 336 336 338 338 338 340 340 340 341 339
353 352 353 355 354 355 357 350 348 345 343 343 342 342 343 344 342 340 338 338 332 335 336 336 334 332 333 335 336 336 334 335 334 335 337 339 339 339 338 337 338 338 337 339 339 340 340 338 338
357 356 360 352 352 355 359 351 346 345 343 342 343 342 342 343 340 338 335 333 336 336 335 336 334 334 335 336 343 335 335 336 338 334 334 337 339 338 340 339 338 339 340 339 337 337 336 337 337
359 357 350 352 356 354 352 351 348 344 343 344 342 343 342 341 339 338 334 334 336 334 337 338 337 334 336 339 337 341 336 334 336 334 333 334 335 335 338 341 340 340 340 334 340 343 333 334 335
361 356 352 356 354 353 347 346 344 345 345 343 342 344 343 342 339 337 334 335 337 336 338 338 338 336 335 336 335 335 335 336 340 342 336 336 334 339 340 340 339 340 341 338 336 336 335 335 336
364 347 353 357 356 354 350 346 344 345 345 342 342 342 342 340 338 338 335 335 336 335 337 338 338 337 335 335 337 336 335 337 338 336 336 338 335 336 339 339 339 339 338 339 338 341 336 337 339
363 350 353 357 357 355 353 350 349 347 344 343 341 343 343 341 340 338 336 335 332 333 337 338 339 338 337 335 335 334 335 335 336 337 340 337 337 338 335 335 340 339 340 334 340 336 334 336 339
363 346 353 354 357 356 352 350 345 345 346 344 340 342 342 343 339 336 334 332 331 334 336 337 338 339 337 335 334 335 335 334 335 336 337 338 338 338 341 337 333 338 339 337 337 333 329 330 336
362 349 351 352 355 355 349 348 349 349 343 346 346 340 340 341 340 338 333 331 334 337 338 339 338 339 335 334 333 336 333 331 332 336 337 337 337 339 340 339 338 336 340 339 335 333 335 334 330
350 350 349 347 349 353 347 349 350 346 348 348 342 340 338 340 340 341 339 334 338 339 338 338 338 338 335 334 333 333 330 330 331 332 336 335 337 339 341 340 338 339 337 338 337 335 334 334 334
343 349 346 346 347 350 348 349 350 346 349 347 342 342 340 342 342 341 340 338 339 338 341 340 338 337 334 336 334 331 335 333 332 333 334 335 336 340 342 342 338 339 336 334 335 335 333 332 332
347 345 347 348 351 350 347 349 348 348 351 350 342 339 341 342 342 342 343 341 341 340 341 341 338 334 332 334 334 339 341 337 334 334 339 340 340 340 343 343 341 340 338 337 336 335 333 334 334
346 344 346 346 348 349 349 350 349 350 347 346 341 341 341 342 342 343 344 345 344 343 341 343 332 331 330 332 338 341 342 341 341 341 343 344 344 342 341 342 341 343 342 341 339 340 339 339 340
345 345 346 346 348 349 350 351 350 350 343 341 341 341 342 342 343 345 345 344 343 340 340 338 331 330 335 337 339 343 344 344 342 344 345 345 345 345 343 344 343 343 343 342 342 342 342 340 339
343 346 346 346 348 350 350 352 352 349 343 341 340 341 342 342 344 345 346 345 343 342 340 343 341 341 343 343 344 344 345 344 345 345 345 343 342 342 344 344 344 341 342 343 343 343 341 342 341
345 345 350 346 345 349 346 352 351 349 345 342 340 340 342 343 344 345 346 346 345 344 341 341 342 344 345 345 345 345 345 345 345 345 343 341 342 341 343 344 345 344 344 345 343 344 343 343 341
343 348 347 344 345 347 348 351 350 350 346 346 343 343 344 344 345 346 344 343 344 343 343 343 343 343 344 345 345 345 345 344 344 345 343 343 343 340 340 341 340 341 342 344 344 344 343 343 344
347 338 341 342 345 347 347 348 348 351 348 347 347 347 347 347 346 346 347 346 344 344 344 345 345 343 344 344 345 344 343 343 343 344 344 346 342 343 342 341 342 344 345 346 347 347 346 344 343
336 336 337 338 344 347 348 348 349 351 350 348 348 349 348 348 348 348 346 347 346 346 345 344 344 344 345 345 345 345 343 342 344 345 346 339 343 343 343 343 344 346 346 344 345 343 343 343 341
334 335 336 338 345 347 347 348 346 351 351 350 348 347 349 349 349 347 347 348 348 348 348 348 346 343 344 345 346 345 346 346 346 347 343 344 344 343 342 344 345 345 343 344 344 344 343 342 342
333 335 335 335 346 346 348 345 349 348 350 350 350 349 347 348 349 348 347 347 348 349 349 348 347 345 342 345 346 345 346 347 340 337 337 341 340 338 339 341 342 343 342 342 343 341 341 346 342
335 331 332 333 337 333 343 337 343 347 350 350 349 350 349 349 348 348 346 346 347 347 348 348 348 347 343 342 346 346 346 344 344 338 336 342 341 339 339 340 340 342 341 339 340 342 341 343 342
333 330 329 331 337 340 342 341 340 343 344 347 347 348 349 348 348 347 347 346 346 346 347 345 345 345 343 342 345 347 347 347 344 337 338 340 340 339 339 340 340 342 341 341 343 344 342 340 340
326 327 328 337 340 337 339 340 339 344 347 344 343 345 347 348 348 347 346 347 347 346 347 346 345 345 343 343 344 346 347 345 344 340 338 339 341 342 341 341 341 343 343 343 341 336 331 327 326
324 325 333 334 339 337 336 343 339 340 341 340 340 342 344 346 347 348 347 346 347 347 347 347 346 346 345 343 344 345 348 346 343 342 342 342 344 343 342 342 342 343 342 339 335 328 322 320 320
324 325 331 337 335 336 339 343 339 341 338 338 339 340 341 343 345 348 346 346 347 348 347 346 346 345 345 344 343 346 348 348 345 344 344 344 345 343 342 342 343 342 339 333 324 318 315 316 318
325 326 324 327 326 331 333 339 338 339 340 340 341 342 343 342 344 346 346 346 347 347 347 346 346 346 345 346 346 347 349 349 348 346 346 345 344 342 343 343 342 338 331 319 314 315 317 319 321
324 325 325 327 330 330 331 334 334 339 340 337 343 343 344 344 344 345 345 346 347 347 347 346 346 346 346 348 349 349 350 350 349 347 346 342 342 343 344 342 337 325 315 314 315 316 318 319 319
323 323 323 324 326 328 330 329 335 340 338 336 335 342 344 345 345 342 343 343 344 347 347 347 347 346 347 348 349 349 348 351 349 346 344 344 344 344 340 334 321 314 311 311 313 315 317 316 313
321 323 324 324 326 326 327 327 328 331 332 333 336 338 342 343 345 345 344 343 344 346 347 347 347 346 346 347 348 348 351 350 346 345 346 345 343 338 330 318 313 309 308 310 311 312 312 310 307
Wind_Speed
10 11 10 4 1 4 5 4 4 12 11 6 15 6 5 5 3 7 26 20 20 18 19 17 16 17 18 18 18 17 16 15 13 10 9 8 8 8 9 8 8 8 6 4 3 5 4 3 4
11 10 3 1 2 7 6 6 13 10 11 16 13 9 4 4 6 24 23 25 21 20 19 17 16 16 17 17 16 15 14 13 10 8 7 8 8 9 8 7 7 5 4 4 3 5 4 4 5
7 5 1 2 3 7 5 5 11 10 18 10 6 8 3 3 17 25 27 26 23 20 18 18 16 15 15 15 13 12 11 9 7 6 6 7 7 6 5 6 7 6 5 5 5 5 5 6 7
3 3 2 5 9 9 5 7 15 18 12 4 11 8 5 5 25 19 28 25 22 20 19 17 15 15 14 14 12 11 9 8 7 7 6 6 6 5 5 6 7 7 7 6 6 6 6 6 6
3 1 4 5 11 7 11 12 19 15 8 9 4 6 6 14 15 27 27 25 22 21 18 16 14 13 14 13 12 10 9 8 9 8 7 7 5 6 6 5 6 6 6 6 6 7 7 7 7
2 0 4 7 6 8 8 14 18 6 8 9 7 11 9 13 19 28 26 24 20 19 18 16 14 13 13 13 12 10 9 8 8 7 7 5 5 4 3 3 5 5 6 6 6 6 7 8 7
3 2 3 4 3 3 6 12 8 10 9 5 13 6 10 18 24 26 24 21 19 19 18 16 13 13 12 12 10 9 8 7 7 6 7 7 7 5 2 3 3 4 5 5 6 5 7 8 7
2 1 4 2 3 3 7 6 13 13 4 11 9 6 13 23 28 25 23 20 19 18 16 14 15 13 12 11 10 8 7 6 6 6 6 6 6 3 4 6 4 5 6 5 6 6 5 6 6
1 1 2 4 5 4 8 6 5 5 16 6 5 9 20 30 28 25 24 22 20 18 17 16 14 12 11 10 10 8 6 5 5 6 6 6 5 2 2 1 6 7 7 6 7 6 4 3 5
2 1 2 5 7 8 9 8 9 8 11 5 9 15 28 31 28 25 24 24 23 21 19 17 15 12 11 11 11 8 6 4 4 5 6 6 5 4 0 3 4 9 8 7 6 6 5 6 6
2 3 3 3 5 18 13 7 4 11 8 9 18 28 32 28 25 24 22 22 21 19 17 16 15 14 12 12 10 7 5 5 4 4 4 4 4 4 1 2 4 7 6 6 7 8 10 11 13
2 6 3 5 8 13 11 9 5 4 2 5 20 35 33 29 27 26 23 21 20 19 16 14 15 14 13 12 10 6 4 4 4 5 4 4 4 5 4 2 1 3 6 7 7 8 10 12 13
4 4 7 10 8 10 11 7 6 1 3 10 23 29 28 26 24 22 20 18 18 18 17 15 15 15 13 11 9 5 3 3 4 5 6 6 5 5 6 4 5 5 5 7 8 8 9 13 14
7 12 13 9 10 10 6 4 4 4 11 17 25 26 24 24 23 20 21 21 20 19 16 14 14 14 13 11 10 8 3 2 6 5 5 6 8 8 7 5 6 5 7 12 10 8 9 12 13
6 9 8 4 6 4 8 4 6 15 16 19 22 21 20 21 20 22 19 20 19 19 20 17 14 13 12 9 7 7 5 4 5 6 5 5 7 7 6 7 5 5 7 5 9 7 6 9 10
3 1 1 5 4 8 2 5 6 18 20 21 21 19 18 20 21 19 20 20 18 18 21 18 17 15 13 12 10 9 10 9 5 4 2 2 7 4 2 5 5 6 7 6 5 5 5 6 8
1 3 3 2 9 6 8 6 5 18 17 19 22 20 19 18 19 20 20 19 19 17 16 16 14 12 11 9 10 10 11 12 9 6 3 2 4 3 2 2 1 2 3 3 2 3 5 5 7
4 3 2 6 5 11 10 17 4 19 18 19 20 21 20 20 24 22 20 19 18 17 16 15 13 12 10 10 10 10 9 11 9 6 4 4 3 3 2 1 2 3 2 2 2 3 4 5 8
3 2 6 8 5 8 15 14 9 23 20 20 22 22 23 25 23 21 22 22 21 20 19 18 16 15 14 12 9 7 6 8 7 4 4 3 2 3 3 2 2 2 2 2 2 4 5 6 7
4 2 3 6 1 8 6 13 9 19 26 28 25 25 26 24 21 22 24 24 25 22 22 21 18 16 15 14 10 7 6 6 6 2 2 1 2 3 2 2 2 3 3 3 5 6 7 7 8
5 5 3 5 1 6 8 8 5 10 20 24 26 25 24 25 23 22 23 25 24 25 24 24 21 17 15 16 14 11 7 8 8 7 4 5 2 2 3 3 2 4 4 5 7 7 8 7 11
14 10 6 4 3 5 2 8 11 6 12 19 29 31 30 28 26 22 23 24 25 23 20 20 22 21 19 17 17 14 8 8 10 13 12 10 6 4 2 3 5 5 5 6 9 10 11 11 12
4 5 5 4 3 3 4 4 9 1 7 17 26 33 34 30 29 26 26 23 23 22 24 16 16 20 21 22 19 12 11 10 13 12 11 8 8 6 6 6 4 6 7 8 10 12 13 13 11
5 3 2 2 1 6 2 7 11 4 7 2 9 28 34 34 30 31 29 24 22 21 25 23 17 17 20 24 20 15 14 11 12 12 13 11 9 9 8 7 8 8 8 11 12 11 10 10 9
3 6 7 7 6 8 2 5 11 15 14 11 10 11 27 33 32 31 31 31 27 26 26 28 25 19 19 22 23 21 16 13 12 12 10 12 10 9 8 8 8 8 10 11 10 10 9 8 8
11 14 9 14 10 10 4 6 6 12 17 10 7 10 15 24 31 31 35 34 32 29 30 30 29 25 19 21 23 24 20 15 14 13 11 12 12 9 9 9 9 10 10 11 10 10 8 6 4
6 7 4 5 1 4 3 5 11 13 16 9 8 9 12 18 26 30 31 32 32 32 31 30 29 27 21 19 22 25 24 18 15 15 13 12 11 12 12 11 10 10 10 10 7 5 3 2 2
5 8 5 2 7 11 5 3 6 5 9 5 5 11 12 16 22 24 28 31 27 30 32 31 28 27 22 20 22 23 23 20 15 14 13 13 13 12 10 10 10 10 8 5 2 1 0 2 4
6 4 1 2 3 7 9 5 9 11 11 10 6 11 14 16 21 27 30 29 29 28 31 32 30 29 24 20 23 25 22 19 17 15 14 13 12 10 10 9 9 7 4 1 1 1 0 2 3
8 14 13 9 10 3 4 8 8 11 10 10 14 6 14 17 20 23 26 26 27 29 31 34 33 30 24 20 23 22 20 17 16 15 14 13 11 9 8 7 6 3 2 3 2 1 0 2 4
Wind_Direction
130 138 145 139 201 78 69 73 114 131 141 105 135 148 128 55 60 118 142 151 148 144 133 131 130 126 130 134 131 128 130 130 126 128 128 125 133 141 142 137 136 147 139 148 187 201 182 160 153
119 132 104 177 55 62 60 103 134 137 140 134 106 106 67 69 93 137 145 152 152 146 138 133 132 127 129 128 129 133 128 128 131 128 115 119 123 129 136 141 148 171 171 157 158 176 166 132 132
93 85 35 79 46 42 79 119 143 130 142 142 114 80 74 79 136 139 147 152 153 146 141 136 134 135 133 130 134 132 131 130 131 133 125 126 131 147 146 156 163 177 168 145 142 147 143 138 133
77 50 43 49 50 41 90 128 140 137 141 138 130 81 80 151 147 147 148 151 149 150 145 139 136 137 139 137 137 135 134 138 136 124 126 132 146 156 167 159 155 156 147 146 148 140 138 148 148
47 32 65 69 62 88 103 122 143 144 142 149 140 118 97 138 154 151 153 153 156 155 149 144 143 141 142 143 142 142 140 134 129 126 126 122 131 148 154 162 155 158 156 153 155 156 148 151 152
330 74 66 69 74 100 121 126 145 165 153 147 112 119 140 162 158 156 156 155 159 158 154 153 151 149 151 150 144 141 130 129 132 122 117 117 121 128 143 147 155 165 164 157 160 156 153 155 156
319 67 72 88 102 102 131 157 179 158 150 158 144 115 142 156 163 160 156 159 162 164 163 162 160 162 163 156 150 139 131 128 131 142 134 130 118 132 170 161 173 170 171 168 173 169 146 152 158
327 340 117 94 142 97 131 136 147 143 143 139 154 162 164 168 163 160 161 163 167 169 171 169 167 169 166 165 157 156 150 150 149 143 142 138 145 168 48 214 203 193 186 176 182 178 158 157 170
264 113 105 160 177 137 148 135 129 144 144 156 169 149 163 160 162 164 168 171 174 175 172 168 174 173 171 170 169 174 171 170 163 157 160 173 172 173 47 117 221 205 201 194 184 189 183 185 194
227 43 96 171 160 159 164 155 141 144 160 136 116 148 165 163 166 170 175 177 180 180 178 180 178 180 181 178 182 182 184 184 184 181 188 186 184 182 176 19 238 204 204 199 204 194 226 246 262
159 27 135 102 156 151 160 158 157 155 192 195 166 154 165 167 173 179 183 186 183 181 188 191 188 185 188 189 187 183 197 202 195 202 208 202 204 204 193 39 91 178 207 216 213 206 216 239 257
161 49 73 125 140 149 162 154 160 180 293 200 176 166 167 173 180 184 186 190 192 192 194 194 195 192 191 192 193 198 193 202 183 198 216 239 239 226 231 243 195 170 198 214 224 225 231 236 248
83 73 70 121 146 154 153 180 165 212 73 141 159 166 173 177 183 189 193 194 192 198 196 195 194 191 187 190 196 189 189 203 200 221 242 259 276 257 239 240 239 248 240 223 229 238 244 246 258
98 102 121 117 140 156 182 167 178 134 132 139 160 174 179 186 189 193 196 198 199 191 193 188 188 191 193 192 202 212 231 276 232 239 254 276 285 281 258 248 242 263 264 253 244 250 257 259 265
118 100 110 134 145 157 151 183 229 156 151 153 170 182 189 194 200 205 205 203 197 193 192 193 188 189 197 195 212 236 243 250 245 235 249 293 311 287 253 244 247 256 255 252 247 252 267 264 258
80 65 154 179 162 162 46 282 158 168 162 164 177 190 201 208 212 216 215 215 213 205 202 201 204 210 220 224 223 241 257 253 218 210 229 306 339 317 211 232 235 266 270 265 259 272 253 264 260
42 294 240 267 210 166 205 298 144 176 184 175 182 195 204 214 223 223 220 217 215 213 207 203 207 212 219 230 246 255 246 226 209 213 253 315 351 27 83 129 84 353 272 311 289 273 285 298 290
215 304 269 279 216 217 205 247 171 187 196 196 193 197 203 211 221 221 221 224 221 219 216 210 205 205 215 226 236 226 221 207 198 210 252 281 300 320 294 288 302 339 358 338 347 354 340 327 323
190 199 302 298 211 225 238 256 211 188 201 209 205 207 209 215 220 222 227 226 226 224 220 217 213 213 218 221 214 205 186 177 175 211 260 254 304 1 327 289 321 321 324 325 337 326 323 327 336
206 239 297 293 254 220 285 265 236 195 203 207 209 211 212 222 217 222 226 231 231 228 228 225 221 220 221 223 221 203 187 173 171 156 204 84 294 346 323 324 346 348 356 307 310 318 321 327 331
223 246 240 290 184 254 298 282 197 207 216 214 222 222 224 221 223 222 225 230 235 234 230 228 227 221 219 215 218 208 203 194 199 239 238 299 247 255 3 338 327 320 325 322 317 319 311 304 310
264 211 246 259 254 314 314 301 299 183 205 212 217 220 223 223 226 226 224 228 230 230 234 230 228 226 220 217 216 216 204 216 231 241 249 236 239 239 309 334 327 301 291 301 304 303 301 300 296
268 169 249 257 243 249 198 252 277 253 258 226 217 217 220 218 220 222 226 228 233 231 219 218 214 217 218 218 214 217 213 226 230 243 225 239 241 257 276 320 310 301 273 286 298 298 294 294 297
128 174 82 76 196 260 25 234 283 281 246 337 213 222 219 217 219 224 228 232 231 229 217 212 209 211 214 216 216 218 216 221 227 224 243 245 255 269 270 286 305 302 280 291 298 294 292 292 290
202 215 239 231 225 257 69 204 253 286 272 279 281 228 217 216 215 218 221 224 228 227 219 215 213 215 214 219 221 223 219 221 231 230 240 248 258 256 265 279 289 290 294 296 293 294 298 299 291
216 229 230 244 236 246 139 216 247 266 284 274 259 251 223 212 211 214 220 221 223 225 218 214 214 213 215 215 218 221 220 225 226 229 240 250 247 255 274 279 284 291 292 297 303 303 301 304 304
163 209 282 234 51 260 229 247 279 267 273 264 250 223 206 202 204 211 216 221 223 221 219 214 213 210 214 210 213 216 221 228 235 231 243 240 247 262 262 267 278 291 299 300 299 302 321 348 348
248 141 193 224 236 246 225 246 247 253 267 286 265 217 202 197 198 204 207 214 219 220 219 215 211 209 207 205 207 211 217 226 231 231 236 235 248 248 259 275 288 299 305 302 303 313 322 354 339
204 213 90 223 241 256 259 245 224 241 255 277 273 246 208 196 197 201 208 215 217 216 215 212 208 204 203 202 205 206 214 220 225 224 232 236 241 244 260 280 296 305 300 274 131 142 103 342 346
278 240 232 237 223 244 273 249 288 249 279 279 278 260 219 206 198 196 198 202 210 211 210 208 203 200 200 203 205 206 208 211 228 227 224 228 232 246 262 279 278 250 176 141 117 120 335 5 39